When you browse on this site, cookies collect data to enhance your experience and personalize the content and advertising you see.
Visit our Privacy Policy to learn more. By continuing to use the site, you agree to this use of cookies and data.
  • In United Kingdom
  • List of Countries
  • For 7 days
  • Water Temperature
  • Satellite Maps
  • Weather Map
  • Weather Widgets
  • user-avatar
    Login

    Hourly Weather Sharyn

    Today, 25 June, Tuesday

    Time Temperature Precipitation Wind Pressure Humidity
    00:00 +21°C° 0 mm 4 mps 747 mmHg 91%
    01:00 +21°C° 0 mm 5 mps 747 mmHg 92%
    02:00 +20°C° 0 mm 5 mps 747 mmHg 92%
    03:00 +20°C° 0 mm 5 mps 747 mmHg 93%
    04:00 +20°C° 0 mm 5 mps 747 mmHg 94%
    05:00 +20°C° 0 mm 5 mps 747 mmHg 95%
    06:00 +21°C° 0 mm 6 mps 748 mmHg 93%
    07:00 +22°C° 0 mm 6 mps 748 mmHg 90%
    08:00 +23°C° 0 mm 6 mps 749 mmHg 87%
    09:00 +24°C° 0 mm 6 mps 749 mmHg 82%
    10:00 +26°C° 0 mm 6 mps 749 mmHg 76%
    11:00 +27°C° 0 mm 6 mps 749 mmHg 71%
    12:00 +27°C° 0 mm 6 mps 749 mmHg 68%
    13:00 +27°C° 0 mm 7 mps 750 mmHg 66%
    14:00 +28°C° 0 mm 7 mps 750 mmHg 63%
    15:00 +27°C° 0 mm 6 mps 750 mmHg 64%
    16:00 +27°C° 0 mm 6 mps 750 mmHg 64%
    17:00 +26°C° 0 mm 5 mps 750 mmHg 65%
    18:00 +25°C° 0 mm 5 mps 750 mmHg 70%
    19:00 +22°C° 0 mm 4 mps 750 mmHg 75%
    20:00 +21°C° 0 mm 4 mps 750 mmHg 81%
    21:00 +20°C° 0 mm 4 mps 751 mmHg 82%
    22:00 +20°C° 0 mm 3 mps 751 mmHg 83%
    23:00 +19°C° 0 mm 3 mps 751 mmHg 85%

    Tomorrow, 26 June, Wednesday

    Time Temperature Precipitation Wind Pressure Humidity
    00:00 +18°C° 0 mm 3 mps 751 mmHg 84%
    01:00 +18°C° 0 mm 3 mps 751 mmHg 84%
    02:00 +17°C° 0 mm 3 mps 752 mmHg 84%
    03:00 +17°C° 0 mm 3 mps 752 mmHg 86%
    04:00 +16°C° 0 mm 3 mps 751 mmHg 87%
    05:00 +16°C° 0 mm 3 mps 751 mmHg 88%
    06:00 +18°C° 0 mm 3 mps 751 mmHg 83%
    07:00 +20°C° 0 mm 3 mps 752 mmHg 77%
    08:00 +21°C° 0 mm 3 mps 752 mmHg 71%
    09:00 +22°C° 0 mm 3 mps 752 mmHg 66%
    10:00 +25°C° 0 mm 3 mps 752 mmHg 60%
    11:00 +26°C° 0 mm 3 mps 752 mmHg 54%
    12:00 +26°C° 0 mm 3 mps 751 mmHg 53%
    13:00 +26°C° 0 mm 2 mps 751 mmHg 52%
    14:00 +27°C° 0 mm 2 mps 751 mmHg 51%
    15:00 +27°C° 0 mm 2 mps 750 mmHg 52%
    16:00 +27°C° 0 mm 1 mps 750 mmHg 53%
    17:00 +27°C° 0 mm 1 mps 749 mmHg 54%
    18:00 +25°C° 0 mm 1 mps 749 mmHg 59%
    19:00 +23°C° 0 mm 1 mps 749 mmHg 64%
    20:00 +22°C° 0 mm 1 mps 748 mmHg 69%
    21:00 +21°C° 0 mm 1 mps 748 mmHg 70%
    22:00 +20°C° 0 mm 1 mps 748 mmHg 72%
    23:00 +19°C° 0 mm 2 mps 748 mmHg 73%

    Day after tomorrow, 27 June, Thursday

    Time Temperature Precipitation Wind Pressure Humidity
    00:00 +18°C° 0 mm 2 mps 748 mmHg 74%
    01:00 +18°C° 0 mm 2 mps 747 mmHg 75%
    02:00 +17°C° 0 mm 2 mps 747 mmHg 76%
    03:00 +17°C° 0 mm 2 mps 746 mmHg 78%
    04:00 +17°C° 0 mm 2 mps 746 mmHg 80%
    05:00 +17°C° 0 mm 2 mps 745 mmHg 81%
    06:00 +19°C° 0 mm 3 mps 745 mmHg 77%
    07:00 +20°C° 0 mm 4 mps 744 mmHg 73%
    08:00 +22°C° 0 mm 5 mps 744 mmHg 69%
    09:00 +23°C° 0 mm 5 mps 743 mmHg 66%
    10:00 +26°C° 0 mm 5 mps 742 mmHg 63%
    11:00 +27°C° 0 mm 6 mps 742 mmHg 60%
    12:00 +28°C° 0.1 mm 6 mps 741 mmHg 60%
    13:00 +28°C° 0.1 mm 6 mps 741 mmHg 61%
    14:00 +29°C° 0.1 mm 7 mps 740 mmHg 62%
    15:00 +28°C° 0.5 mm 6 mps 739 mmHg 69%
    16:00 +26°C° 0.5 mm 6 mps 739 mmHg 75%
    17:00 +25°C° 0.5 mm 5 mps 738 mmHg 81%
    18:00 +23°C° 0.1 mm 5 mps 738 mmHg 84%
    19:00 +22°C° 0.1 mm 5 mps 738 mmHg 86%
    20:00 +22°C° 0.1 mm 5 mps 737 mmHg 88%
    21:00 +21°C° 0 mm 5 mps 737 mmHg 88%
    22:00 +20°C° 0 mm 5 mps 737 mmHg 88%
    23:00 +19°C° 0 mm 5 mps 738 mmHg 88%

    28 June, Friday

    Time Temperature Precipitation Wind Pressure Humidity
    00:00 +17°C° 0 mm 5 mps 738 mmHg 90%
    01:00 +17°C° 0 mm 4 mps 737 mmHg 91%
    02:00 +15°C° 0 mm 4 mps 737 mmHg 93%
    03:00 +15°C° 0 mm 5 mps 737 mmHg 92%
    04:00 +15°C° 0 mm 5 mps 737 mmHg 90%
    05:00 +14°C° 0 mm 5 mps 738 mmHg 89%
    06:00 +15°C° 0 mm 6 mps 738 mmHg 83%
    07:00 +16°C° 0 mm 7 mps 738 mmHg 77%
    08:00 +17°C° 0 mm 7 mps 738 mmHg 71%
    09:00 +18°C° 0 mm 7 mps 738 mmHg 68%
    10:00 +18°C° 0 mm 8 mps 738 mmHg 65%
    11:00 +18°C° 0 mm 8 mps 738 mmHg 61%
    12:00 +20°C° 0 mm 8 mps 738 mmHg 60%
    13:00 +20°C° 0 mm 8 mps 738 mmHg 60%
    14:00 +20°C° 0 mm 8 mps 738 mmHg 59%
    15:00 +20°C° 0.1 mm 8 mps 738 mmHg 60%
    16:00 +18°C° 0.1 mm 8 mps 738 mmHg 62%
    17:00 +18°C° 0.1 mm 8 mps 738 mmHg 64%
    18:00 +17°C° 0 mm 7 mps 739 mmHg 68%
    19:00 +16°C° 0 mm 6 mps 739 mmHg 71%
    20:00 +15°C° 0 mm 5 mps 739 mmHg 75%
    21:00 +14°C° 0 mm 5 mps 739 mmHg 74%
    22:00 +14°C° 0 mm 5 mps 739 mmHg 73%
    23:00 +13°C° 0 mm 6 mps 740 mmHg 72%

    29 June, Saturday

    Time Temperature Precipitation Wind Pressure Humidity
    00:00 +13°C° 0 mm 5 mps 739 mmHg 73%
    01:00 +12°C° 0 mm 5 mps 739 mmHg 74%
    02:00 +12°C° 0 mm 5 mps 739 mmHg 75%
    03:00 +10°C° 0 mm 5 mps 740 mmHg 77%
    04:00 +10°C° 0 mm 6 mps 740 mmHg 79%
    05:00 +10°C° 0 mm 6 mps 740 mmHg 81%
    06:00 +11°C° 0 mm 6 mps 740 mmHg 76%
    07:00 +13°C° 0 mm 6 mps 740 mmHg 71%
    08:00 +15°C° 0 mm 6 mps 741 mmHg 66%
    09:00 +16°C° 0.1 mm 7 mps 741 mmHg 62%
    10:00 +16°C° 0.1 mm 7 mps 741 mmHg 59%
    11:00 +17°C° 0.1 mm 8 mps 741 mmHg 55%
    12:00 +17°C° 0 mm 8 mps 741 mmHg 54%
    13:00 +17°C° 0 mm 8 mps 741 mmHg 53%
    14:00 +18°C° 0 mm 8 mps 741 mmHg 52%
    15:00 +17°C° 0 mm 7 mps 741 mmHg 53%
    16:00 +17°C° 0 mm 7 mps 742 mmHg 55%
    17:00 +17°C° 0 mm 6 mps 742 mmHg 56%
    18:00 +16°C° 0.1 mm 6 mps 742 mmHg 63%
    19:00 +14°C° 0.1 mm 5 mps 742 mmHg 70%
    20:00 +13°C° 0.1 mm 4 mps 742 mmHg 77%
    21:00 +12°C° 0 mm 4 mps 742 mmHg 79%
    22:00 +11°C° 0 mm 4 mps 742 mmHg 80%
    23:00 +11°C° 0 mm 4 mps 742 mmHg 82%

    30 June, Sunday

    Time Temperature Precipitation Wind Pressure Humidity
    00:00 +11°C° 0 mm 4 mps 742 mmHg 82%
    01:00 +11°C° 0 mm 4 mps 742 mmHg 82%
    02:00 +11°C° 0 mm 4 mps 742 mmHg 82%
    03:00 +11°C° 0.4 mm 3 mps 742 mmHg 87%
    04:00 +11°C° 0.4 mm 3 mps 742 mmHg 91%
    05:00 +12°C° 0.4 mm 2 mps 742 mmHg 95%
    06:00 +13°C° 0.3 mm 2 mps 742 mmHg 93%
    07:00 +13°C° 0.3 mm 2 mps 742 mmHg 91%
    08:00 +12°C° 0.3 mm 3 mps 743 mmHg 89%
    09:00 +14°C° 0.1 mm 3 mps 743 mmHg 83%
    10:00 +15°C° 0.1 mm 4 mps 743 mmHg 78%
    11:00 +18°C° 0.1 mm 4 mps 744 mmHg 72%
    12:00 +19°C° 0.2 mm 4 mps 743 mmHg 69%
    13:00 +20°C° 0.2 mm 4 mps 743 mmHg 67%
    14:00 +21°C° 0.2 mm 4 mps 743 mmHg 64%
    15:00 +21°C° 0.1 mm 4 mps 743 mmHg 65%
    16:00 +21°C° 0.1 mm 4 mps 743 mmHg 66%
    17:00 +21°C° 0.1 mm 3 mps 743 mmHg 66%
    18:00 +20°C° 0.1 mm 3 mps 743 mmHg 72%
    19:00 +19°C° 0.1 mm 2 mps 743 mmHg 78%
    20:00 +17°C° 0.1 mm 2 mps 743 mmHg 84%
    21:00 +17°C° 0 mm 2 mps 743 mmHg 87%
    22:00 +16°C° 0 mm 2 mps 743 mmHg 89%
    23:00 +16°C° 0 mm 2 mps 743 mmHg 91%
    Show more